Starlink 11420

operational
NORAD ID: 62591 Int'l Des: 2025-008 Owner: SPXS Country: US Constellation: starlink
LEOCIRCULAR

Starlink 11420について

説明を読み込み中...

リアルタイム位置

3D地球を読み込み中...

次回通過

高度履歴

Altitude vs Time

uPlot chart will show altitude changes over time

軌道要素

1 62591U 25008E 25353.13558601 .00163722 00000-0 12502-2 0 9998
2 62591 43.0043 251.8554 0004477 276.8981 83.1377 15.70912780 54628
Epoch: Dec 19, 2025 • Age: 20 hours

現在のステータス

高度 358.8 km
速度 7.70 km/s
衛星直下点 31.02°N, 56.64°W
打ち上げ日 Jan 13, 2025
運用期間 0.9 years
タイプ internet

技術仕様

分類 Payload
質量 960.00 kg
乾燥質量 910.00 kg
総質量 960.00 kg
長さ 0.30 m
直径 4.10 m
スパン 29.00 m
形状 Box + pan
製造者 SPXS
バスタイプ Starlink V2MD
フェーズステータス In Orbit
所有者/国 SPXS/US

大規模コンステレーション

Loading constellations...